Gustavus, AK

2:53 PM AKST on December 03, 2016 (GMT -0900)
Gustavus

Weather History for PAGS - November, 2012

Change the Weather History Date:

Saturday, November 24, 2012

  Actual Average Record
Temperature  
Mean Temperature 35 °F -  
Max Temperature 37 °F 39 °F 51 °F (1954)
Min Temperature 33 °F 26 °F 2 °F (1955)
Degree Days  
Heating Degree Days 30    
Moisture  
Dew Point 25 °F    
Average Humidity 66    
Maximum Humidity 75    
Minimum Humidity 56    
Precipitation  
Precipitation 0.00 in - - ()
Sea Level Pressure  
Sea Level Pressure 29.79 in    
Wind  
Wind Speed 6 mph (NNE)    
Max Wind Speed 12 mph    
Max Gust Speed -    
Visibility 10 miles    
Events      
Averages and records for this station are not official NWS values.
T = Trace of Precipitation, MM = Missing Value Source: NWS Daily Summary

Daily Weather History Graph

Daily Weather History Graph

Search for Another Location

Airport or City:

Trip Planner

Search our weather history database for the weather conditions in past years. The results will help you decide how hot, cold, wet, or windy it might be!

Date:

Astronomy

Nov. 24, 2012 Rise Set
Actual Time 8:13 AM AKST 3:25 PM AKST
Civil Twilight 7:24 AM AKST 4:14 PM AKST
Nautical Twilight 6:33 AM AKST 5:05 PM AKST
Astronomical Twilight 5:46 AM AKST 5:52 PM AKST
Moon 1:49 PM AKST (11/24) 3:57 AM AKST (11/24)
Length of Visible Light 8h 49m
Length of Day
7h 12m
Waxing Gibbous, 88% of the Moon is Illuminated
Nov 24
Waxing Gibbous
Nov 28
Full
Dec 6
Last Quarter
Dec 12
New
Dec 19
First Quarter

Hourly Weather History & Observations

Time (AKST) Temp. Windchill Dew Point Humidity Pressure Visibility Wind Dir Wind Speed Gust Speed Precip Events Conditions
12:16 AM 37.4 °F 30.3 °F 26.6 °F 65% 29.55 in 10.0 mi NNW 10.4 mph - N/A   Overcast
12:36 AM 37.4 °F 30.3 °F 28.4 °F 70% 29.55 in 10.0 mi NNW 10.4 mph - N/A   Overcast
12:56 AM 37.4 °F 30.8 °F 28.4 °F 70% 29.56 in 10.0 mi NW 9.2 mph - N/A   Overcast
1:16 AM 37.4 °F 30.3 °F 26.6 °F 65% 29.56 in 10.0 mi NW 10.4 mph - N/A   Overcast
1:36 AM 37.4 °F 30.8 °F 26.6 °F 65% 29.57 in 10.0 mi NNW 9.2 mph - N/A   Overcast
1:56 AM 37.4 °F 30.8 °F 26.6 °F 65% 29.57 in 10.0 mi NW 9.2 mph - N/A   Overcast
2:16 AM 37.4 °F 32.1 °F 26.6 °F 65% 29.58 in 10.0 mi NW 6.9 mph - N/A   Overcast
2:36 AM 37.4 °F 32.8 °F 26.6 °F 65% 29.59 in 10.0 mi NW 5.8 mph - N/A   Overcast
2:56 AM 37.4 °F 32.8 °F 26.6 °F 65% 29.59 in 8.0 mi NW 5.8 mph - N/A   Mostly Cloudy
3:16 AM 35.6 °F - 26.6 °F 70% 29.60 in 3.0 mi Calm Calm - N/A   Overcast
3:36 AM 35.6 °F 30.7 °F 28.4 °F 75% 29.60 in 9.0 mi NW 5.8 mph - N/A   Overcast
3:56 AM 35.6 °F 30.7 °F 28.4 °F 75% 29.60 in 10.0 mi NW 5.8 mph - N/A   Overcast
4:16 AM 35.6 °F 30.7 °F 28.4 °F 75% 29.60 in 10.0 mi NW 5.8 mph - N/A   Overcast
4:36 AM 35.6 °F 31.7 °F 28.4 °F 75% 29.60 in 10.0 mi NW 4.6 mph - N/A   Overcast
4:56 AM 35.6 °F 30.7 °F 26.6 °F 70% 29.61 in 10.0 mi NW 5.8 mph - N/A   Overcast
5:16 AM 35.6 °F 31.7 °F 26.6 °F 70% 29.61 in 10.0 mi NNW 4.6 mph - N/A   Overcast
5:36 AM 35.6 °F 29.2 °F 26.6 °F 70% 29.62 in 10.0 mi NNW 8.1 mph - N/A   Overcast
5:56 AM 35.6 °F 28.6 °F 26.6 °F 70% 29.63 in 10.0 mi NNW 9.2 mph - N/A   Overcast
6:16 AM 35.6 °F 28.0 °F 26.6 °F 70% 29.64 in 10.0 mi NNW 10.4 mph - N/A   Overcast
6:36 AM 35.6 °F 28.0 °F 26.6 °F 70% 29.65 in 10.0 mi NNW 10.4 mph - N/A   Mostly Cloudy
6:56 AM 35.6 °F 28.0 °F 24.8 °F 65% 29.65 in 10.0 mi NNW 10.4 mph - N/A   Scattered Clouds
7:16 AM 35.6 °F 29.2 °F 26.6 °F 70% 29.66 in 10.0 mi NNW 8.1 mph - N/A   Mostly Cloudy
7:36 AM 35.6 °F 29.9 °F 26.6 °F 70% 29.66 in 10.0 mi NNW 6.9 mph - N/A   Overcast
7:56 AM 35.6 °F 29.9 °F 24.8 °F 65% 29.67 in 10.0 mi NNW 6.9 mph - N/A   Overcast
8:16 AM 35.6 °F 31.7 °F 24.8 °F 65% 29.68 in 10.0 mi NNW 4.6 mph - N/A   Mostly Cloudy
8:36 AM 35.6 °F 31.7 °F 24.8 °F 65% 29.69 in 10.0 mi North 4.6 mph - N/A   Partly Cloudy
8:56 AM 35.6 °F 31.7 °F 23.0 °F 60% 29.70 in 10.0 mi North 4.6 mph - N/A   Mostly Cloudy
9:16 AM 35.6 °F - 23.0 °F 60% 29.71 in 10.0 mi Calm Calm - N/A   Mostly Cloudy
9:36 AM 35.6 °F - 24.8 °F 65% 29.72 in 10.0 mi Calm Calm - N/A   Overcast
9:56 AM 35.6 °F 32.8 °F 24.8 °F 65% 29.73 in 10.0 mi NE 3.5 mph - N/A   Mostly Cloudy
10:16 AM 35.6 °F - 26.6 °F 70% 29.74 in 10.0 mi Calm Calm - N/A   Mostly Cloudy
10:36 AM 35.6 °F - 24.8 °F 65% 29.75 in 10.0 mi Calm Calm - N/A   Overcast
10:56 AM 35.6 °F - 24.8 °F 65% 29.77 in 10.0 mi Calm Calm - N/A   Overcast
11:16 AM 35.6 °F - 28.4 °F 75% 29.77 in 10.0 mi Calm Calm - N/A   Overcast
11:36 AM 35.6 °F - 28.4 °F 75% 29.78 in 10.0 mi Calm Calm - N/A   Overcast
11:56 AM 37.4 °F 34.9 °F 28.4 °F 70% 29.79 in 10.0 mi ENE 3.5 mph - N/A   Overcast
12:16 PM 37.4 °F 34.9 °F 28.4 °F 70% 29.80 in 10.0 mi East 3.5 mph - N/A   Overcast
12:36 PM 37.4 °F 34.9 °F 28.4 °F 70% 29.81 in 10.0 mi ENE 3.5 mph - N/A   Overcast
12:56 PM 37.4 °F 33.8 °F 28.4 °F 70% 29.81 in 10.0 mi East 4.6 mph - N/A   Overcast
1:16 PM 37.4 °F - 28.4 °F 70% 29.82 in 10.0 mi Calm Calm - N/A   Overcast
1:36 PM 37.4 °F 33.8 °F 24.8 °F 60% 29.83 in 10.0 mi North 4.6 mph - N/A   Overcast
1:56 PM 37.4 °F 33.8 °F 24.8 °F 60% 29.84 in 10.0 mi North 4.6 mph - N/A   Overcast
2:16 PM 37.4 °F - 23.0 °F 56% 29.85 in 10.0 mi Calm Calm - N/A   Overcast
2:36 PM 37.4 °F - 23.0 °F 56% 29.85 in 10.0 mi Calm Calm - N/A   Overcast
2:56 PM 35.6 °F - 24.8 °F 65% 29.86 in 10.0 mi Calm Calm - N/A   Overcast
3:16 PM 35.6 °F - 24.8 °F 65% 29.87 in 10.0 mi Calm Calm - N/A   Overcast
3:36 PM 35.6 °F 32.8 °F 26.6 °F 70% 29.88 in 10.0 mi NNW 3.5 mph - N/A   Overcast
3:56 PM 33.8 °F 29.6 °F 26.6 °F 75% 29.89 in 10.0 mi NNW 4.6 mph - N/A   Overcast
4:16 PM 33.8 °F 30.8 °F 26.6 °F 75% 29.90 in 10.0 mi ENE 3.5 mph - N/A   Overcast
4:36 PM 35.6 °F 32.8 °F 24.8 °F 65% 29.90 in 10.0 mi NNE 3.5 mph - N/A   Overcast
4:56 PM 33.8 °F 30.8 °F 24.8 °F 70% 29.91 in 10.0 mi NE 3.5 mph - N/A   Overcast
5:16 PM 35.6 °F 28.6 °F 26.6 °F 70% 29.91 in 10.0 mi ESE 9.2 mph - N/A   Overcast
5:36 PM 35.6 °F 30.7 °F 26.6 °F 70% 29.92 in 10.0 mi SSE 5.8 mph - N/A   Overcast
5:56 PM 35.6 °F 30.7 °F 26.6 °F 70% 29.93 in 10.0 mi SE 5.8 mph - N/A   Overcast
6:16 PM 35.6 °F 30.7 °F 26.6 °F 70% 29.94 in 10.0 mi SSE 5.8 mph - N/A   Overcast
6:36 PM 35.6 °F 30.7 °F 24.8 °F 65% 29.95 in 10.0 mi SE 5.8 mph - N/A   Overcast
6:56 PM 35.6 °F 29.9 °F 24.8 °F 65% 29.96 in 10.0 mi SE 6.9 mph - N/A   Overcast
7:16 PM 35.6 °F 29.2 °F 24.8 °F 65% 29.97 in 10.0 mi SE 8.1 mph - N/A   Overcast
7:36 PM 35.6 °F 29.2 °F 24.8 °F 65% 29.98 in 10.0 mi SE 8.1 mph - N/A   Overcast
7:56 PM 35.6 °F 29.2 °F 23.0 °F 60% 29.98 in 10.0 mi SE 8.1 mph - N/A   Overcast
8:16 PM 35.6 °F 27.5 °F 23.0 °F 60% 29.98 in 10.0 mi ESE 11.5 mph - N/A   Overcast
8:36 PM 35.6 °F 28.6 °F 23.0 °F 60% 30.00 in 10.0 mi SE 9.2 mph - N/A   Overcast
8:56 PM 35.6 °F 30.7 °F 21.2 °F 56% 30.00 in 10.0 mi SE 5.8 mph - N/A   Overcast
9:16 PM 35.6 °F 31.7 °F 21.2 °F 56% 30.01 in 10.0 mi SSE 4.6 mph - N/A   Overcast
9:36 PM 35.6 °F 30.7 °F 23.0 °F 60% 30.02 in 10.0 mi SSE 5.8 mph - N/A   Overcast
9:56 PM 35.6 °F 30.7 °F 21.2 °F 56% 30.02 in 10.0 mi SE 5.8 mph - N/A   Overcast
10:16 PM 35.6 °F 30.7 °F 21.2 °F 56% 30.04 in 10.0 mi SE 5.8 mph - N/A   Overcast
10:36 PM 35.6 °F 28.6 °F 21.2 °F 56% 30.05 in 10.0 mi ESE 9.2 mph - N/A   Overcast
10:56 PM 35.6 °F 30.7 °F 21.2 °F 56% 30.06 in 10.0 mi SSE 5.8 mph - N/A   Overcast
11:16 PM 35.6 °F 29.9 °F 21.2 °F 56% 30.07 in 10.0 mi ESE 6.9 mph - N/A   Overcast
11:36 PM 35.6 °F 30.7 °F 21.2 °F 56% 30.07 in 10.0 mi SE 5.8 mph - N/A   Overcast
11:56 PM 35.6 °F 32.8 °F 21.2 °F 56% 30.07 in 10.0 mi SE 3.5 mph - N/A   Overcast